Location: Arcizac
(43.0933°N, 0.0112°E)
Time: 19:30:31
(UTC+00:00)

Cosmos 676 Rocket - Pass Details

Date: 14 December 2019
Orbit: 754 x 785 km, 74.0° (Epoch: 24 January)

Event Time Altitude Azimuth Distance (km) Brightness Sun altitude
Rises 17:55:07 0° 191° (SSW) 3,191 7.6 -15.7°
Reaches altitude 10° 17:57:29 10° 189° (S) 2,271 6.8 -16.1°
Maximum altitude 18:02:35 69° 107° (ESE) 806 3.9 -17.0°
Enters shadow 18:06:22 19° 27° (NNE) 1,769 5.5 -17.7°
